[[{"header":{"parameterUnit":"m.s-1","parameterCategory":1,"la1":30.2991,"la2":30.254,"lo1":-89.0895,"lo2":-89.0444,"dy":0.0017,"dx":0.0017,"nx":28,"ny":28,"refTime":"2023-07-25T03:00:00:Z","depth":0,"parameterNumber":2,"parameterNumberName":"U-component_of_WINDS"},"data":[0,0,0,0,0,0,0,0,0,0,0,0,0,0,0,0,0,0,0,0,0,0,0,0,0,0,0,0,0,0,0,0,0,0,0,0,0,0,0,0,0,0,0,0,0,0,0,0,0,0,0,0,0,0,0,0,0,0,-1.3451,-1.3452,0,-1.3466,-1.3466,-1.3466,-1.3474,-1.3474,-1.3474,-1.3474,-1.3489,-1.3489,-1.3489,0,0,0,0,0,0,0,0,0,0,0,0,0,-1.343,-1.3431,-1.3451,-1.3452,-1.3452,-1.3466,-1.3466,-1.3466,-1.3474,-1.3474,-1.3474,-1.3474,-1.3488,-1.3489,-1.3489,0,0,0,0,0,0,0,0,0,0,0,0,0,-1.3441,-1.3431,-1.3451,-1.3457,-1.3458,-1.3466,-1.3466,-1.3466,-1.3474,-1.3474,-1.3474,-1.3474,-1.3488,-1.3489,-1.3489,-1.3492,0,0,-1.3491,-1.3491,0,0,0,0,0,0,0,0,-1.3441,-1.3442,-1.3456,-1.3457,-1.3458,-1.3468,-1.3464,-1.3475,-1.3474,-1.3468,-1.3474,-1.3474,-1.3482,-1.3483,-1.3485,-1.3493,-1.3494,-1.3491,-1.3492,-1.3492,-1.3492,0,0,0,0,0,0,0,-1.344,-1.3442,-1.3457,-1.3456,-1.3457,-1.3459,-1.3461,-1.3466,-1.3474,-1.3468,-1.3469,-1.3471,-1.3482,-1.3485,-1.3486,-1.3494,-1.3491,-1.3492,-1.3492,-1.3492,-1.3505,-1.3505,0,0,0,0,0,0,-1.3438,-1.3441,-1.3457,-1.3458,-1.3449,-1.3459,-1.3461,-1.3465,-1.3474,-1.3476,-1.347,-1.3471,-1.3484,-1.3485,-1.3486,-1.3491,-1.3492,-1.3492,-1.3493,-1.3505,-1.3505,-1.3505,0,0,0,0,0,0,-1.3438,-1.344,-1.3456,-1.3449,-1.3452,-1.346,-1.3464,-1.3465,-1.3468,-1.3476,-1.3478,-1.3472,-1.3484,-1.3486,-1.3491,-1.3491,-1.3493,-1.3493,-1.3505,-1.3505,-1.3505,-1.3499,0,0,0,0,0,0,-1.3437,-1.3439,-1.3441,-1.3449,-1.3452,-1.346,-1.3464,-1.3465,-1.3469,-1.3469,-1.3478,-1.3479,-1.3484,-1.349,-1.3491,-1.3492,-1.3493,-1.3505,-1.3505,-1.3505,-1.3499,-1.3499,-1.3498,0,0,0,0,0,-1.3436,-1.3439,-1.3441,-1.3443,-1.3454,-1.346,-1.3462,-1.3468,-1.3469,-1.347,-1.3475,-1.3479,-1.3491,-1.349,-1.3492,-1.3493,-1.3505,-1.3505,-1.3505,-1.3499,-1.3499,-1.3498,0,0,0,0,0,0,-1.343,-1.344,-1.3442,-1.3447,-1.3453,-1.3462,-1.3463,-1.3467,-1.3472,-1.3472,-1.3479,-1.3481,-1.3486,-1.349,-1.3489,-1.3496,-1.3498,-1.3499,-1.3494,-1.3493,-1.3493,-1.3492,-1.3494,0,0,0,0,0,-1.3429,-1.3433,-1.3442,-1.3445,-1.3448,-1.3455,-1.3458,-1.3462,-1.3468,-1.3471,-1.3476,-1.3482,-1.3487,-1.349,-1.3495,-1.35,-1.3502,-1.3501,-1.3501,-1.35,-1.3501,-1.3503,-1.3503,-1.3505,-1.3505,-1.3505,0,0,-1.3427,-1.3433,-1.3435,-1.3444,-1.3449,-1.3453,-1.3457,-1.3462,-1.3465,-1.3471,-1.3477,-1.3481,-1.3488,-1.3493,-1.3495,-1.3496,-1.3501,-1.35,-1.35,-1.35,-1.3503,-1.3503,-1.3503,-1.3505,-1.3505,-1.3505,0,0,-1.3426,-1.3431,-1.3434,-1.3439,-1.3446,-1.3451,-1.3452,-1.346,-1.3463,-1.3469,-1.3473,-1.3477,-1.3486,-1.3491,-1.3494,-1.3495,-1.3498,-1.3496,-1.3494,-1.3497,-1.3497,-1.3497,-1.3497,-1.3497,-1.3496,-1.3496,-1.3496,0,-1.3422,-1.343,-1.3436,-1.344,-1.3444,-1.345,-1.3453,-1.3457,-1.3466,-1.3468,-1.3469,-1.348,-1.3485,-1.3491,-1.3491,-1.3494,-1.3495,-1.3495,-1.3496,-1.3496,-1.3496,-1.3497,-1.3497,-1.3496,-1.3496,-1.3496,-1.3496,0,-1.3425,-1.343,-1.3432,-1.344,-1.3444,-1.3448,-1.3454,-1.3458,-1.3461,-1.3466,-1.3471,-1.3477,-1.3484,-1.3486,-1.3489,-1.3492,-1.3493,-1.3495,-1.3497,-1.3496,-1.3496,-1.3496,-1.3496,-1.3496,-1.3496,-1.3496,0,0,-1.342,-1.3432,-1.3432,-1.3436,-1.3444,-1.3448,-1.3452,-1.3459,-1.3461,-1.3467,-1.3471,-1.3478,-1.348,-1.3484,-1.3488,-1.349,-1.349,-1.3492,-1.3492,-1.3492,-1.3494,-1.3492,-1.3492,-1.3493,-1.3493,-1.3493,-1.3493,0,-1.3421,-1.3428,-1.3434,-1.344,-1.3444,-1.345,-1.3453,-1.3459,-1.3463,-1.3468,-1.3472,-1.3477,-1.348,-1.3482,-1.3484,-1.349,-1.3491,-1.349,-1.3496,-1.3496,-1.3494,-1.3493,-1.3491,-1.3491,-1.3494,-1.3494,-1.3494,0,-1.3422,-1.3427,-1.3433,-1.3441,-1.3443,-1.3447,-1.3453,-1.3457,-1.3463,-1.3466,-1.3471,-1.3475,-1.3479,-1.3481,-1.3487,-1.3487,-1.3489,-1.3492,-1.3493,-1.3493,-1.3495,-1.3494,-1.3492,-1.3492,-1.3494,-1.3494,-1.3494,0,-1.3418,-1.3427,-1.3432,-1.3435,-1.3444,-1.3446,-1.345,-1.3456,-1.346,-1.3465,-1.3468,-1.3473,-1.3477,-1.3481,-1.3487,-1.3487,-1.3493,-1.3495,-1.3495,-1.3495,-1.3496,-1.3496,-1.3495,-1.3498,-1.3498,-1.3498,-1.3498,0,-1.3418,-1.3421,-1.343,-1.3433,-1.3437,-1.3443,-1.3447,-1.3452,-1.3457,-1.3461,-1.3466,-1.347,-1.3477,-1.3481,-1.3486,-1.349,-1.3492,-1.3494,-1.3496,-1.3494,-1.3494,-1.3496,-1.3496,-1.3498,-1.3498,-1.3498,-1.3498,0,-1.3414,-1.342,-1.3426,-1.3434,-1.3436,-1.3439,-1.3446,-1.3449,-1.3453,-1.3458,-1.346,-1.3467,-1.3473,-1.3479,-1.3486,-1.3489,-1.3493,-1.3495,-1.3491,-1.3492,-1.3493,-1.3492,-1.3493,-1.3493,-1.3496,-1.3496,-1.3496,0,-1.3413,-1.3416,-1.3425,-1.3428,-1.3432,-1.3436,-1.344,-1.3446,-1.345,-1.3457,-1.3459,-1.3465,-1.347,-1.3479,-1.3485,-1.349,-1.3492,-1.3492,-1.3493,-1.3491,-1.3492,-1.3492,-1.3492,-1.3492,-1.3492,-1.3492,-1.3491,0,-1.3412,-1.3415,-1.342,-1.3426,-1.343,-1.3435,-1.344,-1.3442,-1.345,-1.3453,-1.3459,-1.3463,-1.347,-1.3476,-1.3483,-1.3487,-1.349,-1.3491,-1.3492,-1.349,-1.3488,-1.3489,-1.3491,-1.3491,-1.3491,-1.3491,-1.3491,-1.3491,-1.341,-1.3413,-1.3419,-1.3425,-1.3429,-1.3434,-1.3437,-1.3442,-1.3447,-1.3454,-1.3457,-1.3463,-1.3469,-1.3478,-1.3482,-1.3486,-1.3488,-1.3488,-1.3489,-1.3489,-1.3488,-1.3487,-1.3488,-1.3488,-1.3488,-1.3488,-1.3488,0,-1.3409,-1.3413,-1.3418,-1.3425,-1.343,-1.3433,-1.3439,-1.3442,-1.3447,-1.3452,-1.3457,-1.3464,-1.3469,-1.3475,-1.3481,-1.3484,-1.3486,-1.3485,-1.3485,-1.3486,-1.3487,-1.3486,-1.3484,-1.3484,-1.3484,-1.3484,-1.3484,-1.3484,-1.3409,-1.3414,-1.3417,-1.3425,-1.3429,-1.3435,-1.3438,-1.3442,-1.3447,-1.3454,-1.3458,-1.3462,-1.3468,-1.3475,-1.348,-1.3481,-1.3484,-1.3483,-1.3485,-1.3486,-1.3486,-1.3486,-1.3485,-1.3483,-1.3483,-1.3484,-1.3484,-1.3484]},{"header":{"parameterUnit":"m.s-1","parameterCategory":1,"la1":30.2991,"la2":30.254,"lo1":-89.0895,"lo2":-89.0444,"dy":0.0017,"dx":0.0017,"nx":28,"ny":28,"refTime":"2023-07-25T03:00:00:Z","depth":0,"parameterNumber":3,"parameterNumberName":"V-component_of_WINDS"},"data":[0,0,0,0,0,0,0,0,0,0,0,0,0,0,0,0,0,0,0,0,0,0,0,0,0,0,0,0,0,0,0,0,0,0,0,0,0,0,0,0,0,0,0,0,0,0,0,0,0,0,0,0,0,0,0,0,0,0,-1.5552,-1.5553,0,-1.5576,-1.5576,-1.5576,-1.5542,-1.554,-1.5539,-1.5538,-1.556,-1.5562,-1.5564,0,0,0,0,0,0,0,0,0,0,0,0,0,-1.5476,-1.5478,-1.5552,-1.5553,-1.5553,-1.5576,-1.5576,-1.5577,-1.5542,-1.554,-1.5539,-1.5537,-1.556,-1.5562,-1.5564,0,0,0,0,0,0,0,0,0,0,0,0,0,-1.5505,-1.5478,-1.5552,-1.5538,-1.5537,-1.5576,-1.5576,-1.5577,-1.5542,-1.554,-1.5538,-1.5537,-1.5559,-1.5562,-1.5564,-1.5617,0,0,-1.5572,-1.5573,0,0,0,0,0,0,0,0,-1.5504,-1.5508,-1.554,-1.5539,-1.5538,-1.5554,-1.5558,-1.559,-1.5543,-1.554,-1.5538,-1.5536,-1.556,-1.5562,-1.5571,-1.5618,-1.5619,-1.5573,-1.5574,-1.5575,-1.5576,0,0,0,0,0,0,0,-1.5502,-1.5507,-1.5562,-1.5541,-1.554,-1.5531,-1.5533,-1.5564,-1.556,-1.554,-1.5538,-1.5541,-1.5559,-1.5568,-1.5571,-1.5619,-1.5572,-1.5575,-1.5576,-1.5577,-1.5712,-1.5714,0,0,0,0,0,0,-1.5502,-1.5506,-1.5561,-1.5562,-1.5516,-1.5534,-1.5536,-1.5551,-1.5559,-1.5559,-1.5543,-1.5539,-1.5565,-1.5568,-1.5571,-1.5635,-1.5575,-1.5578,-1.5579,-1.571,-1.5713,-1.5715,0,0,0,0,0,0,-1.55,-1.5507,-1.556,-1.5533,-1.5539,-1.5537,-1.5554,-1.5552,-1.5561,-1.5561,-1.556,-1.5553,-1.5563,-1.5568,-1.5606,-1.5635,-1.5579,-1.5581,-1.5708,-1.5711,-1.5714,-1.5761,0,0,0,0,0,0,-1.5498,-1.5507,-1.5527,-1.5534,-1.5541,-1.5595,-1.5555,-1.5554,-1.5566,-1.5562,-1.5571,-1.557,-1.5562,-1.5603,-1.5609,-1.5638,-1.5583,-1.5705,-1.5709,-1.5713,-1.5757,-1.5765,-1.5772,0,0,0,0,0,-1.5496,-1.5539,-1.5528,-1.5535,-1.5566,-1.5597,-1.56,-1.5591,-1.5569,-1.5589,-1.5589,-1.557,-1.5631,-1.5607,-1.5614,-1.5643,-1.5704,-1.5708,-1.5713,-1.5753,-1.5764,-1.5772,0,0,0,0,0,0,-1.5534,-1.5539,-1.5528,-1.5574,-1.5585,-1.5591,-1.5616,-1.5602,-1.5619,-1.5614,-1.5601,-1.5603,-1.5645,-1.5648,-1.5621,-1.5695,-1.5663,-1.567,-1.5692,-1.5702,-1.5709,-1.5708,-1.5585,0,0,0,0,0,-1.5548,-1.5573,-1.5576,-1.5616,-1.5623,-1.5619,-1.5631,-1.5623,-1.5634,-1.5638,-1.5641,-1.5651,-1.5673,-1.5687,-1.5707,-1.5757,-1.5759,-1.5781,-1.5789,-1.5795,-1.5801,-1.5828,-1.5838,-1.573,-1.573,-1.573,0,0,-1.5577,-1.5583,-1.5599,-1.5624,-1.5632,-1.5658,-1.5623,-1.5651,-1.567,-1.5642,-1.5679,-1.5682,-1.5693,-1.5737,-1.5757,-1.5741,-1.5831,-1.5801,-1.5806,-1.5808,-1.5834,-1.5844,-1.5854,-1.5733,-1.5732,-1.5732,0,0,-1.5643,-1.565,-1.5685,-1.5694,-1.5706,-1.5703,-1.5712,-1.5719,-1.572,-1.5757,-1.5737,-1.5759,-1.5796,-1.5805,-1.5815,-1.5886,-1.5869,-1.5892,-1.5933,-1.596,-1.5969,-1.5976,-1.6003,-1.6012,-1.5898,-1.5898,-1.5898,0,-1.5677,-1.5716,-1.5705,-1.5735,-1.5747,-1.5724,-1.576,-1.5768,-1.5786,-1.5795,-1.5777,-1.5824,-1.5829,-1.5877,-1.5894,-1.5902,-1.5912,-1.5892,-1.5969,-1.5976,-1.5983,-1.6008,-1.6018,-1.5901,-1.59,-1.59,-1.59,0,-1.5758,-1.5785,-1.5812,-1.5831,-1.5846,-1.5879,-1.5873,-1.5889,-1.588,-1.5879,-1.5917,-1.5923,-1.5944,-1.5955,-1.5945,-1.6001,-1.5991,-1.5971,-1.5939,-1.5996,-1.6019,-1.6029,-1.5905,-1.5904,-1.5903,-1.5902,0,0,-1.5848,-1.5862,-1.5872,-1.5881,-1.5893,-1.5914,-1.5946,-1.5967,-1.5982,-1.5995,-1.6022,-1.6054,-1.6036,-1.6047,-1.6038,-1.6062,-1.6119,-1.6039,-1.604,-1.6055,-1.6182,-1.6198,-1.6209,-1.6108,-1.611,-1.6111,-1.6182,0,-1.5915,-1.5972,-1.5963,-1.6017,-1.6043,-1.6021,-1.6049,-1.606,-1.606,-1.6081,-1.608,-1.6104,-1.6078,-1.6085,-1.6107,-1.6108,-1.6145,-1.6102,-1.6133,-1.6134,-1.6132,-1.6221,-1.6237,-1.6303,-1.619,-1.6192,-1.6193,0,-1.6001,-1.6018,-1.6076,-1.6085,-1.6095,-1.6121,-1.614,-1.6161,-1.6172,-1.617,-1.6183,-1.6171,-1.6202,-1.6169,-1.6213,-1.6185,-1.6197,-1.6199,-1.6201,-1.6205,-1.6168,-1.6227,-1.6324,-1.6334,-1.6207,-1.6206,-1.6205,0,-1.6063,-1.61,-1.614,-1.6148,-1.616,-1.6178,-1.6184,-1.6194,-1.6207,-1.6224,-1.6233,-1.6253,-1.6264,-1.628,-1.6273,-1.6249,-1.6319,-1.6285,-1.6319,-1.6319,-1.6335,-1.6334,-1.6436,-1.6341,-1.6341,-1.6341,-1.6341,0,-1.6139,-1.6175,-1.6168,-1.6192,-1.6232,-1.6222,-1.6262,-1.6264,-1.6274,-1.6298,-1.628,-1.6303,-1.6292,-1.6315,-1.6309,-1.6347,-1.6352,-1.6352,-1.635,-1.6354,-1.6354,-1.6362,-1.6358,-1.6343,-1.6343,-1.6342,-1.6342,0,-1.6215,-1.6212,-1.6253,-1.6262,-1.6264,-1.6294,-1.63,-1.6323,-1.6322,-1.6353,-1.636,-1.6358,-1.6384,-1.6378,-1.6406,-1.6402,-1.645,-1.6442,-1.6447,-1.6445,-1.648,-1.6477,-1.6591,-1.6606,-1.6501,-1.6502,-1.6503,0,-1.6264,-1.6291,-1.6303,-1.6318,-1.6326,-1.6351,-1.6365,-1.6356,-1.6372,-1.6388,-1.6409,-1.6433,-1.6452,-1.6494,-1.6495,-1.6516,-1.6509,-1.6547,-1.6512,-1.6515,-1.6511,-1.651,-1.6513,-1.6555,-1.6556,-1.6557,-1.6558,0,-1.6352,-1.6349,-1.6371,-1.6393,-1.6411,-1.6427,-1.6442,-1.6455,-1.6448,-1.6466,-1.6493,-1.6508,-1.6537,-1.6561,-1.6581,-1.6586,-1.6571,-1.6569,-1.6578,-1.6583,-1.6585,-1.6585,-1.6467,-1.6566,-1.6565,-1.6565,-1.6564,-1.6564,-1.6417,-1.644,-1.6453,-1.6478,-1.6488,-1.6503,-1.6525,-1.6527,-1.6549,-1.6573,-1.6566,-1.6597,-1.6608,-1.6633,-1.6641,-1.6665,-1.665,-1.6663,-1.6666,-1.667,-1.6675,-1.658,-1.6668,-1.6668,-1.6667,-1.6667,-1.6667,0,-1.6504,-1.6512,-1.6535,-1.6557,-1.6577,-1.6561,-1.6577,-1.6595,-1.6622,-1.6634,-1.6654,-1.6685,-1.6708,-1.6712,-1.6734,-1.6752,-1.6746,-1.6759,-1.6758,-1.6759,-1.6686,-1.6676,-1.6763,-1.6763,-1.6763,-1.6763,-1.6763,-1.6763,-1.6553,-1.6593,-1.6592,-1.6637,-1.6644,-1.6674,-1.6685,-1.6698,-1.6708,-1.6744,-1.6764,-1.6766,-1.6775,-1.6798,-1.6819,-1.6819,-1.6829,-1.6844,-1.6842,-1.6774,-1.6764,-1.6755,-1.6746,-1.6846,-1.6846,-1.6914,-1.6914,-1.6915]}]]